Detroit, MI

8:29 PM EDT on October 18, 2017 (GMT -0400)
Detroit City

Weather History for KDET - February, 2012

Change the Weather History Date:

Wednesday, February 22, 2012

  Actual Average Record
Temperature  
Mean Temperature 38 °F -  
Max Temperature 41 °F 40 °F 62 °F (2017)
Min Temperature 34 °F 25 °F -1 °F (1963)
Degree Days  
Heating Degree Days 28    
Moisture  
Dew Point 31 °F    
Average Humidity 80    
Maximum Humidity 93    
Minimum Humidity 53    
Precipitation  
Precipitation 0.01 in - - ()
Sea Level Pressure  
Sea Level Pressure 29.53 in    
Wind  
Wind Speed 10 mph (SW)    
Max Wind Speed 16 mph    
Max Gust Speed 22 mph    
Visibility 9 miles    
Events Rain , Snow    
Averages and records for this station are not official NWS values.
T = Trace of Precipitation, MM = Missing Value Source: NWS Daily Summary

Daily Weather History Graph

Daily Weather History Graph

Search for Another Location

Airport or City:

Trip Planner

Search our weather history database for the weather conditions in past years. The results will help you decide how hot, cold, wet, or windy it might be!

Date:

Astronomy

Feb. 22, 2012 Rise Set
Actual Time 7:19 AM EST 6:12 PM EST
Civil Twilight 6:50 AM EST 6:41 PM EST
Nautical Twilight 6:18 AM EST 7:13 PM EST
Astronomical Twilight 5:45 AM EST 7:46 PM EST
Moon 7:14 AM EST (2/22) 7:20 PM EST (2/22)
Length of Visible Light 11h 50m
Length of Day
10h 53m
New Moon, 1% of the Moon is Illuminated
Feb 22
New Moon
Feb 29
First Quarter
Mar 8
Full
Mar 14
Last Quarter
Mar 22
New

Hourly Weather History & Observations

Time (EST) Temp. Windchill Dew Point Humidity Pressure Visibility Wind Dir Wind Speed Gust Speed Precip Events Conditions
12:53 AM 36.0 °F 29.0 °F 30.0 °F 79% 29.70 in 10.0 mi SSW 9.2 mph - N/A   Clear
1:53 AM 37.0 °F 29.3 °F 32.0 °F 82% 29.68 in 9.0 mi SW 11.5 mph - N/A   Overcast
2:53 AM 37.0 °F 29.8 °F 33.1 °F 86% 29.67 in 10.0 mi SW 10.4 mph - N/A   Clear
3:53 AM 37.0 °F 29.3 °F 34.0 °F 89% 29.65 in 7.0 mi SW 11.5 mph - N/A   Clear
4:53 AM 37.0 °F 29.3 °F 33.1 °F 86% 29.63 in 10.0 mi SW 11.5 mph 19.6 mph N/A   Scattered Clouds
5:53 AM 37.0 °F 29.3 °F 32.0 °F 82% 29.63 in 10.0 mi SW 11.5 mph - N/A   Overcast
6:53 AM 37.0 °F 29.3 °F 30.9 °F 79% 29.62 in 10.0 mi SW 11.5 mph - N/A   Mostly Cloudy
9:53 AM 37.9 °F 30.5 °F 30.0 °F 73% 29.59 in 10.0 mi SW 11.5 mph 21.9 mph N/A   Overcast
10:53 AM 39.9 °F 33.4 °F 28.0 °F 63% 29.57 in 10.0 mi SW 10.4 mph 20.7 mph N/A   Overcast
11:53 AM 41.0 °F 33.9 °F 25.0 °F 53% 29.55 in 10.0 mi WSW 12.7 mph 21.9 mph N/A   Overcast
12:53 PM 37.0 °F 27.7 °F 30.0 °F 76% 29.53 in 9.0 mi SSW 16.1 mph - N/A   Overcast
1:35 PM 35.6 °F 28.6 °F 32.0 °F 87% 29.50 in 4.0 mi SW 9.2 mph - 0.01 in Snow Light Snow
1:53 PM 35.1 °F 27.4 °F 33.1 °F 92% 29.50 in 8.0 mi WSW 10.4 mph - 0.01 in   Overcast
2:07 PM 35.6 °F 28.6 °F 33.8 °F 93% 29.48 in 8.0 mi SW 9.2 mph - 0.00 in Rain Light Rain
2:16 PM 37.4 °F 30.8 °F 33.8 °F 87% 29.48 in 10.0 mi SW 9.2 mph - 0.00 in Rain Light Rain
2:23 PM 35.6 °F 28.0 °F 33.8 °F 93% 29.48 in 10.0 mi WSW 10.4 mph - 0.00 in Rain Light Rain
2:32 PM 35.6 °F 28.6 °F 33.8 °F 93% 29.47 in 9.0 mi WSW 9.2 mph - 0.00 in Rain Light Rain
2:53 PM 37.0 °F 30.4 °F 33.1 °F 86% 29.48 in 10.0 mi SW 9.2 mph - 0.00 in   Overcast
3:53 PM 37.9 °F 30.0 °F 33.1 °F 83% 29.47 in 10.0 mi SW 12.7 mph 20.7 mph N/A   Overcast
4:53 PM 39.9 °F 33.4 °F 30.9 °F 70% 29.45 in 10.0 mi West 10.4 mph - N/A   Overcast
5:53 PM 39.0 °F 33.4 °F 30.0 °F 70% 29.44 in 10.0 mi West 8.1 mph - N/A   Overcast
6:53 PM 37.9 °F 33.5 °F 28.9 °F 70% 29.44 in 10.0 mi West 5.8 mph - N/A   Overcast
7:53 PM 37.9 °F 34.4 °F 30.0 °F 73% 29.44 in 10.0 mi WSW 4.6 mph - N/A   Overcast
8:53 PM 37.0 °F 33.3 °F 30.0 °F 76% 29.44 in 10.0 mi WSW 4.6 mph - N/A   Mostly Cloudy
9:53 PM 34.0 °F 28.8 °F 28.9 °F 82% 29.44 in 10.0 mi SW 5.8 mph - N/A   Scattered Clouds
10:53 PM 35.1 °F 32.2 °F 30.0 °F 82% 29.44 in 10.0 mi SW 3.5 mph - N/A   Overcast
11:53 PM 35.1 °F 29.3 °F 30.9 °F 85% 29.44 in 10.0 mi SW 6.9 mph - N/A   Overcast